Location: Cadeilhan
(42.8161°N, 0.3161°E)
Time: 02:08:14
(UTC+00:00)

CZ-4B R/B - Pass Details

Date: 18 February 2020
Orbit: 486 x 652 km, 97.9° (Epoch: 03 April)

Event Time Altitude Azimuth Distance (km) Brightness Sun altitude
Rises 05:14:52 0° 5° (N) 2,637 6.4 -18.6°
Reaches altitude 10° 05:17:04 10° 359° (N) 1,726 5.3 -18.2°
Enters shadow 05:20:29 41° 291° (WNW) 728 3.0 -17.5°
